When you browse on this site, cookies collect data to enhance your experience and personalize the content and advertising you see.
Visit our Privacy Policy to learn more. By continuing to use the site, you agree to this use of cookies and data.
  • în România
  • Lista ţărilor
  • Pe 7 zile
  • Temperatura apei
  • Hartă satelitară
  • Meteo pe hartă
  • Widget-uri
  • user-avatar
    Intrare

    Meteo pe oră la La-Plata

    Astăzi, 16 Iunie, Duminică

    Timp Temperatura Precipitaţii Vânt Presiune Umiditate
    00:00 +12°C° 0 mm 9 m/s 764 mmHg 79%
    01:00 +12°C° 0 mm 9 m/s 764 mmHg 78%
    02:00 +12°C° 0 mm 8 m/s 764 mmHg 80%
    03:00 +12°C° 0.3 mm 8 m/s 764 mmHg 80%
    04:00 +13°C° 0.3 mm 8 m/s 764 mmHg 81%
    05:00 +13°C° 0.3 mm 8 m/s 763 mmHg 81%
    06:00 +13°C° 1 mm 9 m/s 764 mmHg 83%
    07:00 +13°C° 1 mm 9 m/s 764 mmHg 85%
    08:00 +12°C° 1 mm 9 m/s 765 mmHg 87%
    09:00 +12°C° 1.1 mm 9 m/s 765 mmHg 89%
    10:00 +12°C° 1.1 mm 9 m/s 765 mmHg 91%
    11:00 +12°C° 1.1 mm 9 m/s 765 mmHg 92%
    12:00 +13°C° 1.9 mm 9 m/s 765 mmHg 93%
    13:00 +13°C° 1.9 mm 8 m/s 765 mmHg 94%
    14:00 +13°C° 1.9 mm 8 m/s 764 mmHg 94%
    15:00 +13°C° 0.3 mm 8 m/s 764 mmHg 94%
    16:00 +14°C° 0.3 mm 7 m/s 764 mmHg 95%
    17:00 +14°C° 0.3 mm 7 m/s 764 mmHg 95%
    18:00 +14°C° 0.2 mm 7 m/s 765 mmHg 95%
    19:00 +14°C° 0.2 mm 6 m/s 765 mmHg 96%
    20:00 +14°C° 0.2 mm 6 m/s 765 mmHg 96%
    21:00 +15°C° 0.3 mm 6 m/s 765 mmHg 96%
    22:00 +15°C° 0.3 mm 6 m/s 765 mmHg 96%
    23:00 +15°C° 0.3 mm 6 m/s 765 mmHg 96%

    Mâine, 17 Iunie, Luni

    Timp Temperatura Precipitaţii Vânt Presiune Umiditate
    00:00 +15°C° 1.1 mm 6 m/s 765 mmHg 96%
    01:00 +15°C° 1.1 mm 5 m/s 764 mmHg 97%
    02:00 +16°C° 1.1 mm 5 m/s 764 mmHg 97%
    03:00 +16°C° 1.3 mm 5 m/s 764 mmHg 97%
    04:00 +16°C° 1.3 mm 5 m/s 764 mmHg 98%
    05:00 +17°C° 1.3 mm 4 m/s 763 mmHg 98%
    06:00 +17°C° 1.2 mm 4 m/s 763 mmHg 98%
    07:00 +17°C° 1.2 mm 4 m/s 764 mmHg 98%
    08:00 +18°C° 1.2 mm 4 m/s 764 mmHg 98%
    09:00 +18°C° 0.7 mm 4 m/s 763 mmHg 98%
    10:00 +17°C° 0.7 mm 5 m/s 763 mmHg 97%
    11:00 +19°C° 0.7 mm 5 m/s 762 mmHg 97%
    12:00 +19°C° 1.4 mm 4 m/s 762 mmHg 97%
    13:00 +19°C° 1.4 mm 4 m/s 761 mmHg 98%
    14:00 +19°C° 1.4 mm 4 m/s 760 mmHg 98%
    15:00 +19°C° 3 mm 4 m/s 760 mmHg 98%
    16:00 +19°C° 3 mm 4 m/s 760 mmHg 98%
    17:00 +19°C° 3 mm 5 m/s 759 mmHg 98%
    18:00 +19°C° 5.5 mm 4 m/s 759 mmHg 98%
    19:00 +19°C° 5.5 mm 3 m/s 759 mmHg 98%
    20:00 +18°C° 5.5 mm 2 m/s 759 mmHg 99%
    21:00 +18°C° 3.1 mm 3 m/s 759 mmHg 99%
    22:00 +19°C° 3.1 mm 4 m/s 758 mmHg 98%
    23:00 +19°C° 3.1 mm 4 m/s 758 mmHg 98%

    Poimâine, 18 Iunie, Marţi

    Timp Temperatura Precipitaţii Vânt Presiune Umiditate
    00:00 +19°C° 3.8 mm 4 m/s 757 mmHg 97%
    01:00 +19°C° 3.8 mm 4 m/s 757 mmHg 97%
    02:00 +18°C° 3.8 mm 4 m/s 756 mmHg 96%
    03:00 +17°C° 5.6 mm 5 m/s 755 mmHg 96%
    04:00 +17°C° 5.6 mm 5 m/s 754 mmHg 97%
    05:00 +17°C° 5.6 mm 6 m/s 753 mmHg 97%
    06:00 +17°C° 8.5 mm 5 m/s 753 mmHg 96%
    07:00 +17°C° 8.5 mm 5 m/s 752 mmHg 96%
    08:00 +18°C° 8.5 mm 4 m/s 752 mmHg 96%
    09:00 +17°C° 2.1 mm 5 m/s 752 mmHg 95%
    10:00 +16°C° 2.1 mm 6 m/s 752 mmHg 94%
    11:00 +16°C° 2.1 mm 7 m/s 751 mmHg 94%
    12:00 +16°C° 0.2 mm 7 m/s 751 mmHg 90%
    13:00 +15°C° 0.2 mm 8 m/s 751 mmHg 85%
    14:00 +15°C° 0.2 mm 8 m/s 750 mmHg 81%
    15:00 +13°C° 0.1 mm 9 m/s 751 mmHg 81%
    16:00 +12°C° 0.1 mm 10 m/s 751 mmHg 81%
    17:00 +11°C° 0.1 mm 10 m/s 751 mmHg 81%
    18:00 +11°C° 0.1 mm 10 m/s 752 mmHg 80%
    19:00 +9°C° 0.1 mm 11 m/s 752 mmHg 79%
    20:00 +9°C° 0.1 mm 11 m/s 752 mmHg 78%
    21:00 +9°C° 0 mm 11 m/s 752 mmHg 75%
    22:00 +9°C° 0 mm 11 m/s 752 mmHg 73%
    23:00 +9°C° 0 mm 11 m/s 752 mmHg 70%

    19 Iunie, Miercuri

    Timp Temperatura Precipitaţii Vânt Presiune Umiditate
    00:00 +9°C° 0 mm 11 m/s 752 mmHg 67%
    01:00 +9°C° 0 mm 11 m/s 752 mmHg 64%
    02:00 +9°C° 0 mm 11 m/s 752 mmHg 61%
    03:00 +9°C° 0 mm 11 m/s 753 mmHg 61%
    04:00 +8°C° 0 mm 11 m/s 753 mmHg 60%
    05:00 +8°C° 0 mm 11 m/s 753 mmHg 59%
    06:00 +8°C° 0 mm 11 m/s 754 mmHg 62%
    07:00 +8°C° 0 mm 11 m/s 754 mmHg 64%
    08:00 +7°C° 0 mm 11 m/s 755 mmHg 66%
    09:00 +8°C° 0 mm 10 m/s 756 mmHg 68%
    10:00 +8°C° 0 mm 10 m/s 756 mmHg 70%
    11:00 +9°C° 0 mm 10 m/s 757 mmHg 72%
    12:00 +10°C° 0 mm 9 m/s 757 mmHg 72%
    13:00 +11°C° 0 mm 9 m/s 757 mmHg 71%
    14:00 +11°C° 0 mm 9 m/s 757 mmHg 71%
    15:00 +11°C° 0 mm 8 m/s 758 mmHg 72%
    16:00 +11°C° 0 mm 8 m/s 759 mmHg 72%
    17:00 +11°C° 0 mm 7 m/s 759 mmHg 72%
    18:00 +10°C° 0 mm 7 m/s 760 mmHg 75%
    19:00 +9°C° 0 mm 6 m/s 761 mmHg 78%
    20:00 +9°C° 0 mm 5 m/s 761 mmHg 80%
    21:00 +8°C° 0 mm 5 m/s 761 mmHg 81%
    22:00 +8°C° 0 mm 5 m/s 762 mmHg 82%
    23:00 +7°C° 0 mm 4 m/s 762 mmHg 83%

    20 Iunie, Joi

    Timp Temperatura Precipitaţii Vânt Presiune Umiditate
    00:00 +7°C° 0 mm 4 m/s 762 mmHg 85%
    01:00 +7°C° 0 mm 4 m/s 762 mmHg 87%
    02:00 +7°C° 0 mm 3 m/s 762 mmHg 88%
    03:00 +7°C° 0 mm 3 m/s 763 mmHg 89%
    04:00 +7°C° 0 mm 2 m/s 763 mmHg 89%
    05:00 +7°C° 0 mm 2 m/s 763 mmHg 90%
    06:00 +7°C° 0 mm 2 m/s 763 mmHg 89%
    07:00 +8°C° 0 mm 1 m/s 764 mmHg 88%
    08:00 +9°C° 0 mm 1 m/s 764 mmHg 87%
    09:00 +10°C° 0 mm 1 m/s 764 mmHg 80%
    10:00 +12°C° 0 mm 1 m/s 765 mmHg 74%
    11:00 +14°C° 0 mm 1 m/s 765 mmHg 67%
    12:00 +14°C° 0 mm 2 m/s 765 mmHg 67%
    13:00 +15°C° 0 mm 2 m/s 764 mmHg 66%
    14:00 +14°C° 0 mm 3 m/s 764 mmHg 66%
    15:00 +13°C° 0 mm 3 m/s 764 mmHg 70%
    16:00 +13°C° 0 mm 2 m/s 764 mmHg 73%
    17:00 +12°C° 0 mm 2 m/s 764 mmHg 77%
    18:00 +12°C° 0 mm 2 m/s 764 mmHg 80%
    19:00 +11°C° 0 mm 3 m/s 764 mmHg 82%
    20:00 +11°C° 0 mm 3 m/s 764 mmHg 85%
    21:00 +11°C° 0 mm 3 m/s 764 mmHg 85%
    22:00 +11°C° 0 mm 4 m/s 764 mmHg 86%
    23:00 +11°C° 0 mm 4 m/s 764 mmHg 87%

    21 Iunie, Vineri

    Timp Temperatura Precipitaţii Vânt Presiune Umiditate
    00:00 +11°C° 0 mm 4 m/s 764 mmHg 87%
    01:00 +11°C° 0 mm 4 m/s 764 mmHg 87%
    02:00 +11°C° 0 mm 4 m/s 764 mmHg 87%
    03:00 +11°C° 0 mm 4 m/s 763 mmHg 87%
    04:00 +11°C° 0 mm 4 m/s 763 mmHg 87%
    05:00 +11°C° 0 mm 4 m/s 763 mmHg 88%
    06:00 +11°C° 0 mm 4 m/s 763 mmHg 88%
    07:00 +11°C° 0 mm 4 m/s 764 mmHg 88%
    08:00 +11°C° 0 mm 4 m/s 764 mmHg 87%
    09:00 +12°C° 0 mm 4 m/s 764 mmHg 83%
    10:00 +13°C° 0 mm 5 m/s 764 mmHg 80%
    11:00 +14°C° 0 mm 5 m/s 764 mmHg 76%
    12:00 +14°C° 0 mm 4 m/s 763 mmHg 74%
    13:00 +14°C° 0 mm 4 m/s 763 mmHg 73%
    14:00 +15°C° 0 mm 4 m/s 762 mmHg 71%
    15:00 +14°C° 0 mm 3 m/s 762 mmHg 74%
    16:00 +14°C° 0 mm 3 m/s 762 mmHg 76%
    17:00 +15°C° 0 mm 2 m/s 762 mmHg 78%
    18:00 +15°C° 0 mm 2 m/s 762 mmHg 79%
    19:00 +14°C° 0 mm 3 m/s 762 mmHg 79%
    20:00 +14°C° 0 mm 3 m/s 762 mmHg 80%
    21:00 +14°C° 0 mm 3 m/s 763 mmHg 81%
    22:00 +15°C° 0 mm 2 m/s 763 mmHg 82%
    23:00 +14°C° 0 mm 2 m/s 763 mmHg 83%
    Arată mai mult